ABY980 LTAI-LTFJ

Flight info

Callsign ABY980
Flight time 0h 50m
Altitude 36000
Route EKSEN1J/36C EKSEN UL610 ETAMP ETAMP2G
Aircraft A320/M-VGDW/C

Departure

Time 2026-05-05 20:44
Airport Antalya International Airport (LTAI)

Arrival

Time 2026-05-05 21:34
Airport Istanbul Sabiha Gökçen International Airport (LTFJ)
Time Latitude Longitude Altitude Speed Heading
2026-05-05 20:18 36.89283 30.80529 180 ft 0 kts
2026-05-05 20:39 36.89275 30.80528 180 ft 2 kts
2026-05-05 20:39 36.89258 30.80525 180 ft 2 kts
2026-05-05 20:39 36.89241 30.80522 180 ft 2 kts
2026-05-05 20:39 36.89225 30.80517 180 ft 2 kts 55°
2026-05-05 20:40 36.89220 30.80505 180 ft 0 kts 99°
2026-05-05 20:42 36.89209 30.80545 179 ft 11 kts 106°
2026-05-05 20:42 36.89186 30.80627 179 ft 10 kts 129°
2026-05-05 20:42 36.89164 30.80698 179 ft 9 kts 78°
2026-05-05 20:43 36.89201 30.80747 178 ft 7 kts 36°
2026-05-05 20:43 36.89239 30.80782 178 ft 6 kts 36°
2026-05-05 20:43 36.89299 30.80831 179 ft 18 kts 33°
2026-05-05 20:43 36.89427 30.80903 179 ft 25 kts 12°
2026-05-05 20:44 36.89792 30.80957 182 ft 91 kts
2026-05-05 20:44 36.90661 30.81076 206 ft 156 kts
2026-05-05 20:44 36.91783 30.81254 833 ft 164 kts
2026-05-05 20:44 36.92920 30.81501 1585 ft 170 kts 14°
2026-05-05 20:45 36.95403 30.82729 2291 ft 216 kts 24°
2026-05-05 20:45 36.96858 30.83508 2838 ft 235 kts 24°
2026-05-05 20:45 36.98386 30.84317 3672 ft 241 kts 22°
2026-05-05 20:46 36.99940 30.85136 4611 ft 243 kts 21°
2026-05-05 20:46 37.01506 30.85961 5527 ft 245 kts 21°
2026-05-05 20:46 37.03085 30.86790 6459 ft 247 kts 21°
2026-05-05 20:46 37.04661 30.87616 7297 ft 251 kts 21°
2026-05-05 20:47 37.06304 30.88478 8167 ft 254 kts 21°
2026-05-05 20:47 37.07984 30.89105 8945 ft 261 kts
2026-05-05 20:47 37.09860 30.89350 9445 ft 278 kts
2026-05-05 20:47 37.11808 30.89565 10206 ft 284 kts
2026-05-05 20:48 37.13838 30.89785 10648 ft 304 kts
2026-05-05 20:48 37.16023 30.90023 10967 ft 325 kts
2026-05-05 20:48 37.18308 30.90276 11617 ft 333 kts
2026-05-05 20:48 37.20639 30.90537 12363 ft 339 kts
2026-05-05 20:49 37.22999 30.90804 13126 ft 343 kts
2026-05-05 20:49 37.25395 30.91078 13866 ft 348 kts
2026-05-05 20:49 37.27821 30.91358 14471 ft 351 kts
2026-05-05 20:49 37.30251 30.91773 15131 ft 355 kts 11°
2026-05-05 20:50 37.32607 30.92775 15815 ft 361 kts 23°
2026-05-05 20:50 37.34074 30.93774 16272 ft 364 kts 30°
2026-05-05 20:50 37.36969 30.96026 17188 ft 369 kts 29°
2026-05-05 20:50 37.39211 30.97754 17426 ft 385 kts 29°
2026-05-05 20:51 37.41584 30.99355 17932 ft 389 kts 19°
2026-05-05 20:51 37.44194 31.00210 18477 ft 389 kts
2026-05-05 20:51 37.46891 31.00205 18974 ft 389 kts 350°
2026-05-05 20:51 37.49504 30.99332 19483 ft 389 kts 336°
2026-05-05 20:52 37.51872 30.97686 20006 ft 391 kts 326°
2026-05-05 20:52 37.54156 30.95811 20545 ft 393 kts 326°
2026-05-05 20:52 37.56450 30.93927 21099 ft 394 kts 326°
2026-05-05 20:52 37.58756 30.92033 21630 ft 397 kts 326°
2026-05-05 20:53 37.61075 30.90128 22137 ft 399 kts 326°
2026-05-05 20:53 37.63408 30.88209 22633 ft 402 kts 326°
2026-05-05 20:53 37.65761 30.86272 23104 ft 405 kts 326°
2026-05-05 20:53 37.68125 30.84324 23569 ft 408 kts 326°
2026-05-05 20:54 37.69699 30.83027 23830 ft 409 kts 326°
2026-05-05 20:54 37.72093 30.81054 24191 ft 413 kts 326°
2026-05-05 20:54 37.74506 30.79063 24563 ft 415 kts 326°
2026-05-05 20:54 37.76926 30.77066 24961 ft 417 kts 326°
2026-05-05 20:55 37.79359 30.75057 25353 ft 418 kts 326°
2026-05-05 20:55 37.81804 30.73036 25752 ft 420 kts 326°
2026-05-05 20:55 37.84253 30.71011 26135 ft 422 kts 326°
2026-05-05 20:55 37.86714 30.68974 26623 ft 420 kts 326°
2026-05-05 20:56 37.89140 30.67066 27783 ft 402 kts 331°
2026-05-05 20:56 37.91630 30.65630 29043 ft 384 kts 335°
2026-05-05 20:56 37.94057 30.64315 29915 ft 376 kts 335°
2026-05-05 20:56 37.96457 30.63006 30455 ft 371 kts 335°
2026-05-05 20:57 37.99410 30.61397 32379 ft 327 kts 334°
2026-05-05 20:57 38.00792 30.60641 32780 ft 328 kts 334°
2026-05-05 20:57 38.02903 30.59478 32933 ft 334 kts 334°
2026-05-05 20:57 38.05046 30.58291 33259 ft 330 kts 335°
2026-05-05 20:58 38.07003 30.57296 34535 ft 300 kts 336°
2026-05-05 20:58 38.08972 30.56235 34179 ft 313 kts 333°
2026-05-05 20:58 38.12907 30.53971 34695 ft 303 kts 334°
2026-05-05 20:59 38.14875 30.52860 34473 ft 320 kts 333°
2026-05-05 20:59 38.16972 30.51644 34211 ft 338 kts 333°
2026-05-05 20:59 38.21346 30.49048 34340 ft 352 kts 335°
2026-05-05 21:00 38.23521 30.47885 35307 ft 329 kts 336°
2026-05-05 21:00 38.25601 30.46824 35771 ft 325 kts 336°
2026-05-05 21:00 38.27700 30.45749 35991 ft 326 kts 335°
2026-05-05 21:00 38.29846 30.44625 36070 ft 332 kts 335°
2026-05-05 21:01 38.34166 30.42291 36075 ft 347 kts 334°
2026-05-05 21:01 38.46093 30.35675 36083 ft 387 kts 335°
2026-05-05 21:02 38.56336 30.30003 36078 ft 415 kts 335°
2026-05-05 21:02 38.62962 30.26314 36202 ft 415 kts 335°
2026-05-05 21:02 38.65628 30.24833 36088 ft 418 kts 335°
2026-05-05 21:02 38.68297 30.23350 36081 ft 419 kts 335°
2026-05-05 21:03 38.73624 30.20396 36078 ft 408 kts 335°
2026-05-05 21:03 38.76201 30.19006 36080 ft 395 kts 336°
2026-05-05 21:03 38.78688 30.17660 36079 ft 382 kts 333°
2026-05-05 21:04 38.80862 30.15866 36097 ft 366 kts 315°
2026-05-05 21:04 38.82485 30.13415 36001 ft 358 kts 307°
2026-05-05 21:04 38.83958 30.10821 35492 ft 362 kts 306°
2026-05-05 21:04 38.85433 30.08180 35004 ft 366 kts 306°
2026-05-05 21:05 38.86911 30.05518 34580 ft 367 kts 306°
2026-05-05 21:05 38.88418 30.02796 33632 ft 381 kts 306°
2026-05-05 21:05 38.89954 30.00018 32576 ft 392 kts 306°
2026-05-05 21:05 38.91542 29.97149 31800 ft 393 kts 306°
2026-05-05 21:06 38.93116 29.94321 31542 ft 385 kts 306°
2026-05-05 21:06 38.94671 29.91523 31299 ft 387 kts 306°
2026-05-05 21:06 38.96242 29.88691 31048 ft 391 kts 306°
2026-05-05 21:06 38.97842 29.85841 30805 ft 395 kts 309°
2026-05-05 21:07 38.99819 29.83382 30567 ft 399 kts 325°
2026-05-05 21:07 39.02278 29.81739 30312 ft 402 kts 342°
2026-05-05 21:07 39.05034 29.81129 30050 ft 405 kts
2026-05-05 21:07 39.07860 29.81389 29760 ft 408 kts
2026-05-05 21:08 39.10678 29.81741 29480 ft 407 kts
2026-05-05 21:08 39.13499 29.82100 29196 ft 406 kts
2026-05-05 21:08 39.16303 29.82453 28892 ft 406 kts
2026-05-05 21:08 39.19150 29.82799 27796 ft 416 kts
2026-05-05 21:09 39.22070 29.83129 26734 ft 425 kts
2026-05-05 21:09 39.25029 29.83468 26048 ft 431 kts
2026-05-05 21:09 39.28014 29.83831 25501 ft 426 kts
2026-05-05 21:09 39.30938 29.84180 24891 ft 417 kts
2026-05-05 21:10 39.33773 29.84490 24333 ft 412 kts
2026-05-05 21:10 39.36623 29.84280 24136 ft 409 kts 351°
2026-05-05 21:10 39.39361 29.83366 24083 ft 404 kts 340°
2026-05-05 21:10 39.41913 29.81971 24103 ft 393 kts 338°
2026-05-05 21:11 39.44406 29.80591 24099 ft 387 kts 338°
2026-05-05 21:11 39.46874 29.79239 24070 ft 384 kts 338°
2026-05-05 21:11 39.49315 29.77889 23841 ft 376 kts 337°
2026-05-05 21:11 39.51670 29.76552 23596 ft 365 kts 337°
2026-05-05 21:12 39.53988 29.75233 23323 ft 362 kts 337°
2026-05-05 21:12 39.56283 29.73930 23050 ft 357 kts 337°
2026-05-05 21:12 39.58523 29.72641 22778 ft 348 kts 337°
2026-05-05 21:12 39.60756 29.71369 22507 ft 352 kts 337°
2026-05-05 21:13 39.63005 29.70106 22241 ft 352 kts 338°
2026-05-05 21:13 39.65252 29.68859 21972 ft 350 kts 338°
2026-05-05 21:13 39.67488 29.67645 21706 ft 343 kts 338°
2026-05-05 21:13 39.69686 29.66453 21458 ft 347 kts 338°
2026-05-05 21:14 39.71894 29.65187 21199 ft 346 kts 336°
2026-05-05 21:14 39.74085 29.63896 20943 ft 345 kts 336°
2026-05-05 21:14 39.76238 29.62628 20692 ft 343 kts 336°
2026-05-05 21:14 39.78389 29.61373 20442 ft 335 kts 336°
2026-05-05 21:15 39.80498 29.60155 20193 ft 329 kts 337°
2026-05-05 21:15 39.82584 29.58963 19947 ft 326 kts 337°
2026-05-05 21:15 39.84653 29.57789 19702 ft 324 kts 337°
2026-05-05 21:15 39.86725 29.56614 19465 ft 328 kts 337°
2026-05-05 21:16 39.88813 29.55431 19181 ft 325 kts 337°
2026-05-05 21:16 39.90876 29.54288 19080 ft 320 kts 341°
2026-05-05 21:16 39.93012 29.53470 19103 ft 320 kts 345°
2026-05-05 21:16 39.95160 29.52690 19099 ft 320 kts 345°
2026-05-05 21:17 39.97306 29.51901 19105 ft 321 kts 345°
2026-05-05 21:17 39.99452 29.51108 19097 ft 321 kts 345°
2026-05-05 21:17 40.01598 29.50316 19097 ft 321 kts 345°
2026-05-05 21:17 40.03750 29.49525 19097 ft 321 kts 345°
2026-05-05 21:18 40.05900 29.48736 19087 ft 321 kts 345°
2026-05-05 21:18 40.08080 29.48139 19082 ft 320 kts 356°
2026-05-05 21:18 40.10293 29.48252 18955 ft 317 kts
2026-05-05 21:18 40.12406 29.48994 18436 ft 313 kts 17°
2026-05-05 21:19 40.14480 29.49851 17756 ft 312 kts 17°
2026-05-05 21:19 40.16532 29.50709 17128 ft 307 kts 17°
2026-05-05 21:19 40.18529 29.51541 16188 ft 302 kts 17°
2026-05-05 21:19 40.20517 29.52368 15304 ft 297 kts 16°
2026-05-05 21:20 40.22468 29.53177 14421 ft 293 kts 16°
2026-05-05 21:20 40.24420 29.53833 13529 ft 286 kts
2026-05-05 21:20 40.26409 29.53746 13218 ft 288 kts 349°
2026-05-05 21:20 40.28299 29.52907 13077 ft 287 kts 333°
2026-05-05 21:21 40.29956 29.51444 13079 ft 288 kts 325°
2026-05-05 21:21 40.31567 29.49880 13083 ft 288 kts 325°
2026-05-05 21:21 40.33181 29.48321 13003 ft 288 kts 326°
2026-05-05 21:21 40.34801 29.46756 12565 ft 290 kts 325°
2026-05-05 21:22 40.36423 29.45190 12202 ft 289 kts 325°
2026-05-05 21:22 40.38032 29.43629 11846 ft 285 kts 324°
2026-05-05 21:22 40.39405 29.41774 11270 ft 285 kts 307°
2026-05-05 21:22 40.40255 29.39422 10683 ft 288 kts 288°
2026-05-05 21:23 40.40490 29.36856 10176 ft 287 kts 273°
2026-05-05 21:23 40.40458 29.34247 9624 ft 284 kts 272°
2026-05-05 21:23 40.40424 29.31673 9034 ft 281 kts 272°
2026-05-05 21:23 40.40391 29.29124 8445 ft 278 kts 272°
2026-05-05 21:24 40.40398 29.26624 8063 ft 268 kts 280°
2026-05-05 21:24 40.40935 29.24301 7986 ft 267 kts 302°
2026-05-05 21:24 40.42103 29.22444 8002 ft 263 kts 324°
2026-05-05 21:24 40.43708 29.21344 8002 ft 260 kts 346°
2026-05-05 21:25 40.45478 29.20819 8001 ft 261 kts 348°
2026-05-05 21:25 40.47255 29.20308 8005 ft 262 kts 348°
2026-05-05 21:25 40.49033 29.19795 8001 ft 261 kts 348°
2026-05-05 21:25 40.50808 29.19284 7882 ft 260 kts 348°
2026-05-05 21:26 40.52563 29.18779 7496 ft 257 kts 348°
2026-05-05 21:26 40.54286 29.18281 7081 ft 256 kts 348°
2026-05-05 21:26 40.56025 29.17779 6679 ft 256 kts 348°
2026-05-05 21:26 40.57764 29.17278 6269 ft 256 kts 348°
2026-05-05 21:27 40.59497 29.16779 5830 ft 255 kts 348°
2026-05-05 21:27 40.61225 29.16282 5407 ft 254 kts 348°
2026-05-05 21:27 40.62949 29.15789 4986 ft 253 kts 348°
2026-05-05 21:27 40.64666 29.15299 4547 ft 252 kts 348°
2026-05-05 21:28 40.66379 29.14810 4094 ft 252 kts 348°
2026-05-05 21:28 40.68093 29.14319 3631 ft 252 kts 347°
2026-05-05 21:28 40.69801 29.13830 3259 ft 250 kts 347°
2026-05-05 21:28 40.71511 29.13339 3110 ft 253 kts 347°
2026-05-05 21:29 40.73193 29.12855 2999 ft 240 kts 347°
2026-05-05 21:29 40.74767 29.12402 2997 ft 223 kts 347°
2026-05-05 21:29 40.76228 29.11980 3010 ft 208 kts 347°
2026-05-05 21:29 40.77597 29.11584 3001 ft 196 kts 347°
2026-05-05 21:30 40.78906 29.11208 3004 ft 190 kts 347°
2026-05-05 21:30 40.80202 29.10942 3007 ft 188 kts 360°
2026-05-05 21:30 40.81485 29.11236 3013 ft 189 kts 20°
2026-05-05 21:30 40.82611 29.12121 3008 ft 190 kts 40°
2026-05-05 21:31 40.83390 29.13437 3021 ft 176 kts 60°
2026-05-05 21:31 40.83904 29.14826 3002 ft 161 kts 61°
2026-05-05 21:31 40.84381 29.16112 3001 ft 153 kts 61°
2026-05-05 21:31 40.84844 29.17361 3004 ft 150 kts 61°
2026-05-05 21:32 40.85301 29.18591 3002 ft 149 kts 61°
2026-05-05 21:32 40.85756 29.19819 2789 ft 155 kts 61°
2026-05-05 21:32 40.86259 29.21176 2257 ft 168 kts 62°
2026-05-05 21:32 40.86774 29.22570 1765 ft 173 kts 63°
2026-05-05 21:33 40.87296 29.23985 1406 ft 168 kts 63°
2026-05-05 21:33 40.87759 29.25237 1138 ft 161 kts 63°
2026-05-05 21:33 40.88233 29.26541 876 ft 154 kts 64°
2026-05-05 21:33 40.88696 29.27787 644 ft 148 kts 63°
2026-05-05 21:34 40.89140 29.28978 432 ft 141 kts 64°
2026-05-05 21:34 40.89556 29.30112 318 ft 125 kts 65°
2026-05-05 21:34 40.89862 29.30939 317 ft 75 kts 64°
2026-05-05 21:34 40.90023 29.31376 315 ft 31 kts 65°
2026-05-05 21:35 40.90101 29.31547 317 ft 29 kts 47°